CW7986 Weather Reports


Display with metric or nautical units.
time (UTC)temp
F
wind
direction
speed
MPH
gust
MPH
rain 1hr
in
rain 24hr
in
rain mn
in
humidity
%
barometer
mb
20260507031002 75 0 0.0 0.0 0.00 0.00 0.00 86 1014.5
20260507030503 75 0 0.0 0.0 0.00 0.00 0.00 86 1014.5
20260507030002 75 0 0.0 0.0 0.00 0.00 0.00 86 1014.5
20260507025502 76 346 0.0 1.0 0.00 0.00 0.00 86 1014.5
20260507025002 76 346 0.0 1.0 0.00 0.00 0.00 86 1014.5
20260507024502 76 346 0.0 1.0 0.00 0.00 0.00 86 1014.6
20260507024002 76 0 0.0 0.0 0.00 0.00 0.00 86 1014.7
20260507023502 76 0 0.0 0.0 0.00 0.00 0.00 86 1014.6
20260507023002 76 0 0.0 0.0 0.00 0.00 0.00 86 1014.6
20260507022524 76 346 0.0 2.0 0.00 0.00 0.00 86 1014.5
20260507022002 76 346 0.0 2.0 0.00 0.00 0.00 86 1014.4
20260507021502 76 346 0.0 2.0 0.00 0.00 0.00 86 1014.6
20260507021003 76 346 1.0 2.0 0.00 0.00 0.00 86 1014.4
20260507020502 76 319 1.0 3.0 0.00 0.00 0.00 86 1014.5
20260507020002 76 302 1.0 3.0 0.00 0.00 0.00 86 1014.4
20260507015502 76 304 2.0 4.0 0.00 0.00 0.00 86 1014.4
20260507015023 76 300 2.0 4.0 0.00 0.00 0.00 86 1014.4
20260507014524 76 296 2.0 3.0 0.00 0.00 0.00 86 1014.4
20260507014002 77 292 2.0 6.0 0.00 0.00 0.00 86 1014.3
20260507013502 76 291 2.0 6.0 0.00 0.00 0.00 86 1014.3
20260507013002 77 289 2.0 5.0 0.00 0.00 0.00 86 1014.3
20260507012502 77 285 2.0 5.0 0.00 0.00 0.00 85 1014.3
20260507012002 77 283 3.0 5.0 0.00 0.00 0.00 85 1014.3
20260507011502 77 284 3.0 5.0 0.00 0.00 0.00 85 1014.3
20260507010502 77 279 3.0 5.0 0.00 0.00 0.00 85 1014.3
20260507010002 77 276 3.0 5.0 0.00 0.00 0.00 85 1014.3
20260507005502 77 275 3.0 5.0 0.00 0.00 0.00 85 1014.3
20260507005003 77 274 4.0 6.0 0.00 0.00 0.00 85 1014.3
20260507004502 77 271 4.0 6.0 0.00 0.00 0.00 84 1014.3
20260507004002 77 271 4.0 6.0 0.00 0.00 0.00 84 1014.4
20260507003523 77 272 4.0 6.0 0.00 0.00 0.00 84 1014.4
20260507003023 77 276 4.0 6.0 0.00 0.00 0.00 84 1014.3
20260507002502 77 280 3.0 6.0 0.00 0.00 0.00 83 1014.3
20260507002002 77 277 3.0 5.0 0.00 0.00 0.00 83 1014.3
20260507001502 77 273 4.0 7.0 0.00 0.00 0.00 83 1014.3
20260507001023 77 271 5.0 7.0 0.00 0.00 0.00 83 1014.3
20260507000502 78 273 4.0 7.0 0.00 0.00 0.00 83 1014.3
20260507000023 78 276 4.0 6.0 0.00 0.00 0.00 83 1014.3
20260506235502 78 273 4.0 7.0 0.00 0.00 0.00 82 1014.2
20260506235002 78 272 5.0 7.0 0.00 0.00 0.00 82 1014.3
20260506234502 78 272 4.0 7.0 0.00 0.00 0.00 82 1014.3
20260506234002 79 270 3.0 6.0 0.00 0.00 0.00 82 1014.2
20260506233502 79 267 3.0 7.0 0.00 0.00 0.00 81 1014.2
20260506233002 79 265 3.0 7.0 0.00 0.00 0.00 81 1014.3
20260506232503 79 269 4.0 7.0 0.00 0.00 0.00 81 1014.3
20260506232003 79 274 4.0 7.0 0.00 0.00 0.00 81 1014.3
20260506231502 79 274 4.0 7.0 0.00 0.00 0.00 81 1014.3
20260506231023 79 275 5.0 8.0 0.00 0.00 0.00 81 1014.3
20260506230502 79 269 4.0 8.0 0.00 0.00 0.00 80 1014.3
20260506230023 80 269 4.0 10.0 0.00 0.00 0.00 80 1014.3
20260506225502 80 277 5.0 10.0 0.00 0.00 0.00 80 1014.3
20260506225023 80 278 4.0 8.0 0.00 0.00 0.00 79 1014.3
20260506224502 80 272 4.0 10.0 0.00 0.00 0.00 79 1014.3
20260506224002 80 272 4.0 10.0 0.00 0.00 0.00 79 1014.3
20260506223502 81 271 4.0 9.0 0.00 0.00 0.00 79 1014.3
20260506223002 80 275 5.0 10.0 0.00 0.00 0.00 79 1014.3
20260506222502 81 275 4.0 10.0 0.00 0.00 0.00 79 1014.3
20260506222003 81 272 4.0 10.0 0.00 0.00 0.00 79 1014.3
20260506221502 81 270 4.0 10.0 0.00 0.00 0.00 79 1014.3
20260506221002 81 269 4.0 10.0 0.00 0.00 0.00 79 1014.3
20260506220502 81 272 6.0 10.0 0.00 0.00 0.00 79 1014.2
20260506220003 81 272 6.0 10.0 0.00 0.00 0.00 78 1014.2
20260506215502 81 271 5.0 10.0 0.00 0.00 0.00 77 1014.2
20260506215002 82 272 5.0 10.0 0.00 0.00 0.00 77 1014.3
20260506214502 82 267 3.0 9.0 0.00 0.00 0.00 77 1014.3
20260506214002 82 257 3.0 5.0 0.00 0.00 0.00 77 1014.3
20260506213524 82 267 5.0 10.0 0.00 0.00 0.00 77 1014.3
20260506213002 81 275 5.0 10.0 0.00 0.00 0.00 77 1014.3
20260506212502 82 272 4.0 9.0 0.00 0.00 0.00 78 1014.3
20260506212002 81 268 5.0 12.0 0.00 0.00 0.00 77 1014.3
20260506211502 82 271 5.0 12.0 0.00 0.00 0.00 78 1014.3
20260506211024 81 273 6.0 11.0 0.00 0.00 0.00 79 1014.3
20260506210502 81 272 6.0 11.0 0.00 0.00 0.00 77 1014.3
20260506210002 82 272 6.0 12.0 0.00 0.00 0.00 77 1014.3
20260506205505 82 273 6.0 12.0 0.00 0.00 0.00 77 1014.3
20260506205002 83 270 5.0 12.0 0.00 0.00 0.00 77 1014.3
20260506204523 82 269 5.0 12.0 0.00 0.00 0.00 75 1014.2
20260506204002 84 270 3.0 10.0 0.00 0.00 0.00 74 1014.3
20260506203502 84 261 3.0 7.0 0.00 0.00 0.00 74 1014.3
20260506203002 84 251 2.0 7.0 0.00 0.00 0.00 74 1014.2
20260506202502 84 262 3.0 10.0 0.00 0.00 0.00 74 1014.3
20260506202004 84 258 3.0 10.0 0.00 0.00 0.00 73 1014.3
20260506201523 85 244 3.0 12.0 0.00 0.00 0.00 73 1014.3
20260506201023 84 234 3.0 12.0 0.00 0.00 0.00 73 1014.3
20260506200502 84 251 4.0 13.0 0.00 0.00 0.00 73 1014.3
20260506200003 84 259 4.0 13.0 0.00 0.00 0.00 75 1014.3
20260506195502 84 242 3.0 9.0 0.00 0.00 0.00 71 1014.3
20260506195002 86 245 3.0 9.0 0.00 0.00 0.00 72 1014.3
20260506194502 85 258 3.0 9.0 0.00 0.00 0.00 71 1014.4
20260506194002 85 264 3.0 7.0 0.00 0.00 0.00 71 1014.5
20260506193502 86 239 2.0 7.0 0.00 0.00 0.00 71 1014.6
20260506193002 86 198 2.0 6.0 0.00 0.00 0.00 71 1014.7
20260506192503 86 226 2.0 11.0 0.00 0.00 0.00 70 1014.8
20260506192023 86 237 3.0 11.0 0.00 0.00 0.00 71 1014.8
20260506191502 86 247 3.0 10.0 0.00 0.00 0.00 70 1014.8
20260506191002 86 250 2.0 10.0 0.00 0.00 0.00 72 1014.8
20260506190502 85 234 3.0 10.0 0.00 0.00 0.00 72 1014.8
20260506190002 85 241 3.0 12.0 0.00 0.00 0.00 72 1014.8
20260506185502 85 244 3.0 12.0 0.00 0.00 0.00 72 1014.8
20260506185002 86 255 3.0 10.0 0.00 0.00 0.00 72 1014.9
20260506184503 85 260 4.0 10.0 0.00 0.00 0.00 73 1015.0
20260506184002 85 255 3.0 7.0 0.00 0.00 0.00 73 1015.2
20260506183503 86 234 2.0 9.0 0.00 0.00 0.00 72 1015.2
20260506183002 86 216 3.0 9.0 0.00 0.00 0.00 72 1015.3
20260506182502 85 244 3.0 7.0 0.00 0.00 0.00 72 1015.3
20260506182025 85 256 3.0 9.0 0.00 0.00 0.00 71 1015.3
20260506181502 86 250 3.0 10.0 0.00 0.00 0.00 72 1015.3
20260506181002 85 255 3.0 12.0 0.00 0.00 0.00 73 1015.3
20260506180503 85 263 3.0 12.0 0.00 0.00 0.00 73 1015.4
20260506180003 85 253 3.0 10.0 0.00 0.00 0.00 73 1015.5
20260506175502 85 255 2.0 9.0 0.00 0.00 0.00 73 1015.5
20260506175002 85 242 3.0 13.0 0.00 0.00 0.00 74 1015.5
20260506174502 84 230 3.0 13.0 0.00 0.00 0.00 73 1015.6
20260506174024 85 259 4.0 9.0 0.00 0.00 0.00 74 1015.5
20260506173502 84 266 4.0 9.0 0.00 0.00 0.00 74 1015.6
20260506173002 85 251 4.0 12.0 0.00 0.00 0.00 74 1015.6
20260506172523 85 250 4.0 12.0 0.00 0.00 0.00 72 1015.5
20260506172023 85 250 3.0 9.0 0.00 0.00 0.00 73 1015.6
20260506171504 85 256 3.0 7.0 0.00 0.00 0.00 72 1015.7
20260506171023 86 241 3.0 7.0 0.00 0.00 0.00 71 1015.7
20260506170503 86 225 3.0 7.0 0.00 0.00 0.00 72 1015.7
20260506170002 85 256 3.0 10.0 0.00 0.00 0.00 72 1015.8
20260506165503 85 256 3.0 13.0 0.00 0.00 0.00 73 1015.8
20260506165002 85 250 3.0 13.0 0.00 0.00 0.00 74 1015.8
20260506164503 84 250 3.0 11.0 0.00 0.00 0.00 72 1015.8
20260506164003 86 218 3.0 11.0 0.00 0.00 0.00 71 1015.8
20260506163502 86 217 3.0 11.0 0.00 0.00 0.00 71 1015.8
20260506163002 86 201 4.0 13.0 0.00 0.00 0.00 70 1015.8
20260506162523 86 192 4.0 13.0 0.00 0.00 0.00 70 1015.8
20260506162003 85 198 3.0 10.0 0.00 0.00 0.00 71 1015.8
20260506161502 85 194 3.0 11.0 0.00 0.00 0.00 71 1015.8
20260506161002 85 202 3.0 11.0 0.00 0.00 0.00 71 1015.8
20260506160503 85 206 3.0 11.0 0.00 0.00 0.00 70 1015.9
20260506160002 85 217 3.0 11.0 0.00 0.00 0.00 71 1015.8
20260506155502 85 229 3.0 9.0 0.00 0.00 0.00 71 1015.9
20260506155002 85 206 3.0 9.0 0.00 0.00 0.00 71 1015.8
20260506154523 84 213 3.0 10.0 0.00 0.00 0.00 71 1015.8
20260506154002 85 214 2.0 10.0 0.00 0.00 0.00 70 1015.8
20260506153502 86 200 2.0 10.0 0.00 0.00 0.00 70 1015.9
20260506153002 85 225 2.0 10.0 0.00 0.00 0.00 69 1015.8
20260506152502 86 216 2.0 9.0 0.00 0.00 0.00 70 1015.8
20260506152023 86 191 3.0 9.0 0.00 0.00 0.00 68 1015.8
20260506151502 86 188 3.0 12.0 0.00 0.00 0.00 69 1015.8
20260506151002 86 189 2.0 12.0 0.00 0.00 0.00 69 1015.8
20260506150503 87 175 3.0 10.0 0.00 0.00 0.00 65 1015.8
20260506150002 86 167 4.0 10.0 0.00 0.00 0.00 67 1015.8
20260506145524 85 163 4.0 10.0 0.00 0.00 0.00 66 1015.8
20260506145002 85 163 4.0 10.0 0.00 0.00 0.00 67 1015.7
20260506144502 85 155 4.0 10.0 0.00 0.00 0.00 68 1015.7
20260506144002 86 151 3.0 7.0 0.00 0.00 0.00 67 1015.6
20260506143502 85 149 3.0 7.0 0.00 0.00 0.00 69 1015.5
20260506143023 85 145 3.0 9.0 0.00 0.00 0.00 70 1015.5
20260506142523 84 156 3.0 10.0 0.00 0.00 0.00 69 1015.4
20260506142003 84 149 3.0 10.0 0.00 0.00 0.00 69 1015.4
20260506141502 84 156 4.0 6.0 0.00 0.00 0.00 71 1015.5
20260506141023 83 161 4.0 6.0 0.00 0.00 0.00 71 1015.4
20260506140502 82 140 3.0 8.0 0.00 0.00 0.00 72 1015.5
20260506140002 82 144 4.0 8.0 0.00 0.00 0.00 73 1015.6
20260506135502 82 149 3.0 7.0 0.00 0.00 0.00 73 1015.6
20260506135023 82 141 3.0 6.0 0.00 0.00 0.00 73 1015.6
20260506134503 82 136 3.0 11.0 0.00 0.00 0.00 74 1015.5
20260506134002 80 142 4.0 11.0 0.00 0.00 0.00 74 1015.6
20260506133502 80 146 5.0 9.0 0.00 0.00 0.00 75 1015.5
20260506133002 79 146 5.0 9.0 0.00 0.00 0.00 76 1015.4
20260506132502 79 145 4.0 9.0 0.00 0.00 0.00 76 1015.4
20260506132003 79 152 4.0 10.0 0.00 0.00 0.00 78 1015.4
20260506131502 79 150 4.0 10.0 0.00 0.00 0.00 77 1015.3
20260506131002 78 140 4.0 8.0 0.00 0.00 0.00 79 1015.3
20260506130502 78 142 3.0 10.0 0.00 0.00 0.00 79 1015.3
20260506130003 78 129 3.0 10.0 0.00 0.00 0.00 80 1015.3
20260506125502 77 116 3.0 7.0 0.00 0.00 0.00 82 1015.3
20260506125024 76 120 3.0 7.0 0.00 0.00 0.00 82 1015.3
20260506124502 76 122 3.0 7.0 0.00 0.00 0.00 84 1015.3
20260506124004 75 127 2.0 7.0 0.00 0.00 0.00 84 1015.3
20260506123502 75 126 2.0 6.0 0.00 0.00 0.00 85 1015.2
20260506123023 74 120 2.0 5.0 0.00 0.00 0.00 86 1015.2
20260506122502 73 127 2.0 5.0 0.00 0.00 0.00 87 1015.0
20260506122002 73 122 2.0 5.0 0.00 0.00 0.00 87 1015.0
20260506121502 72 119 2.0 5.0 0.00 0.00 0.00 87 1015.0
20260506121002 72 120 2.0 5.0 0.00 0.00 0.00 88 1014.9
20260506120503 72 117 2.0 5.0 0.00 0.00 0.00 88 1014.8
20260506120002 71 113 2.0 4.0 0.00 0.00 0.00 88 1014.8
20260506115523 71 101 1.0 4.0 0.00 0.00 0.00 88 1014.9
20260506115002 71 99 1.0 5.0 0.00 0.00 0.00 88 1014.8
20260506114523 70 104 1.0 5.0 0.00 0.00 0.00 88 1014.8
20260506114002 70 112 0.0 1.0 0.00 0.00 0.00 88 1014.8
20260506113502 70 112 0.0 2.0 0.00 0.00 0.00 88 1014.8
20260506113002 70 110 1.0 3.0 0.00 0.00 0.00 88 1014.8
20260506112502 69 105 1.0 3.0 0.00 0.00 0.00 88 1014.8
20260506112002 69 94 0.0 2.0 0.00 0.00 0.00 88 1014.7
20260506111523 69 96 0.0 4.0 0.00 0.00 0.00 87 1014.6
20260506111002 69 97 1.0 4.0 0.00 0.00 0.00 87 1014.6
20260506110502 69 104 0.0 2.0 0.00 0.00 0.00 87 1014.5
20260506110003 69 106 1.0 3.0 0.00 0.00 0.00 87 1014.4
20260506105502 69 98 0.0 3.0 0.00 0.00 0.00 87 1014.3
20260506105023 69 100 0.0 3.0 0.00 0.00 0.00 87 1014.3
20260506104504 69 120 0.0 3.0 0.00 0.00 0.00 87 1014.3
20260506104003 69 0 0.0 0.0 0.00 0.00 0.00 87 1014.2
20260506103502 69 0 0.0 0.0 0.00 0.00 0.00 87 1014.1
20260506103023 69 0 0.0 0.0 0.00 0.00 0.00 87 1014.1
20260506102502 69 0 0.0 0.0 0.00 0.00 0.00 87 1014.2
20260506102024 69 0 0.0 0.0 0.00 0.00 0.00 87 1014.2
20260506101502 69 120 0.0 2.0 0.00 0.00 0.00 86 1014.1
20260506101002 69 101 0.0 2.0 0.00 0.00 0.00 87 1014.2
20260506100502 69 102 0.0 2.0 0.00 0.00 0.00 86 1014.0
20260506100002 69 115 0.0 2.0 0.00 0.00 0.00 86 1013.8
20260506095502 69 0 0.0 0.0 0.00 0.00 0.00 86 1013.8
20260506095023 69 0 0.0 0.0 0.00 0.00 0.00 86 1013.8
20260506094502 69 0 0.0 0.0 0.00 0.00 0.00 86 1013.9
20260506094002 69 0 0.0 0.0 0.00 0.00 0.00 86 1013.9
20260506093503 69 0 0.0 0.0 0.00 0.00 0.00 86 1014.0
20260506093024 69 0 0.0 0.0 0.00 0.00 0.00 86 1014.0
20260506092502 69 0 0.0 0.0 0.00 0.00 0.00 86 1014.0
20260506092002 69 0 0.0 0.0 0.00 0.00 0.00 85 1014.0
20260506091502 69 0 0.0 0.0 0.00 0.00 0.00 85 1014.0
20260506091002 70 0 0.0 0.0 0.00 0.00 0.00 85 1014.0
20260506090502 70 0 0.0 0.0 0.00 0.00 0.00 85 1013.9
20260506090003 70 0 0.0 0.0 0.00 0.00 0.00 85 1014.1
20260506085502 70 94 0.0 1.0 0.00 0.00 0.00 85 1014.1
20260506085023 70 94 0.0 2.0 0.00 0.00 0.00 85 1014.0
20260506084502 70 94 0.0 2.0 0.00 0.00 0.00 85 1013.9
20260506084002 70 96 0.0 2.0 0.00 0.00 0.00 85 1013.9
20260506083502 71 99 0.0 2.0 0.00 0.00 0.00 85 1013.8
20260506083002 71 106 0.0 2.0 0.00 0.00 0.00 84 1013.7
20260506082502 71 105 0.0 3.0 0.00 0.00 0.00 85 1013.8
20260506082002 71 99 0.0 3.0 0.00 0.00 0.00 85 1013.8
20260506081502 71 95 0.0 3.0 0.00 0.00 0.00 84 1013.9
20260506081002 71 92 1.0 3.0 0.00 0.00 0.00 84 1013.9
20260506080502 71 108 1.0 3.0 0.00 0.00 0.00 84 1013.8
20260506073503 71 0 0.0 0.0 0.00 0.00 0.00 83 1014.1
20260506073003 72 0 0.0 0.0 0.00 0.00 0.00 83 1014.2
20260506072502 72 0 0.0 0.0 0.00 0.00 0.00 83 1014.2
20260506072024 72 0 0.0 0.0 0.00 0.00 0.00 83 1014.3
20260506071503 72 103 0.0 2.0 0.00 0.00 0.00 83 1014.3
20260506071002 72 104 0.0 3.0 0.00 0.00 0.00 83 1014.3
20260506070502 72 105 0.0 3.0 0.00 0.00 0.00 82 1014.3
20260506062503 73 101 1.0 3.0 0.00 0.00 0.00 81 1014.4
20260506062002 73 104 1.0 3.0 0.00 0.00 0.00 81 1014.3
20260506061503 73 108 1.0 3.0 0.00 0.00 0.00 81 1014.3
20260506061002 73 107 1.0 3.0 0.00 0.00 0.00 81 1014.3
20260506060503 73 112 1.0 4.0 0.00 0.00 0.00 81 1014.3
20260506051003 73 96 2.0 4.0 0.00 0.01 0.00 82 1015.1
20260506050502 73 100 2.0 4.0 0.00 0.01 0.00 82 1015.0
20260506045002 73 109 1.0 4.0 0.00 0.01 0.00 82 1014.8
20260506044503 73 120 2.0 7.0 0.00 0.01 0.00 83 1014.8
20260506044002 73 125 2.0 7.0 0.00 0.01 0.00 83 1014.8
20260506043503 73 121 2.0 5.0 0.00 0.01 0.00 83 1014.8
20260506043002 73 117 2.0 5.0 0.00 0.01 0.00 83 1014.8
20260506042502 74 123 1.0 5.0 0.00 0.01 0.00 83 1014.8
20260506042003 74 122 2.0 5.0 0.00 0.01 0.00 83 1014.8
20260506041502 74 118 1.0 5.0 0.00 0.01 0.00 83 1014.8
20260506041002 74 102 1.0 4.0 0.00 0.01 0.00 83 1014.8
20260506040503 74 88 1.0 4.0 0.00 0.01 0.00 83 1014.8
20260506040003 74 79 0.0 2.0 0.00 0.01 0.00 83 1014.8
20260506035502 74 79 0.0 2.0 0.00 0.01 0.01 83 1015.0
20260506035003 74 92 0.0 3.0 0.00 0.01 0.01 83 1015.0
20260506034502 74 118 1.0 3.0 0.00 0.01 0.01 83 1014.9
20260506034003 74 137 1.0 3.0 0.00 0.01 0.01 82 1014.8
20260506033502 74 121 1.0 3.0 0.00 0.01 0.01 82 1014.8
20260506033002 74 55 0.0 2.0 0.00 0.01 0.01 82 1014.8
20260506032502 74 13 0.0 2.0 0.00 0.01 0.01 82 1014.8
20260506032002 74 13 0.0 2.0 0.00 0.01 0.01 82 1014.8